When you browse on this site, cookies collect data to enhance your experience and personalize the content and advertising you see.
Visit our Privacy Policy to learn more. By continuing to use the site, you agree to this use of cookies and data.
  • en France
  • Liste des pays
  • À 7 jours
  • Température de l'eau
  • Carte météo
  • Widgets météo
  • user-avatar
    Se connecter

    Météo par heure à Winter Haven

    Ce jour, 2 Juin, Mardi

    Heure Température Précipitation Vent Pression Humidité
    00:00 +26°C° 0 mm 4 m/s 760 mmHg 87%
    01:00 +25°C° 0 mm 3 m/s 761 mmHg 88%
    02:00 +25°C° 0 mm 3 m/s 760 mmHg 89%
    03:00 +25°C° 0 mm 3 m/s 760 mmHg 89%
    04:00 +25°C° 0 mm 3 m/s 760 mmHg 90%
    05:00 +25°C° 0 mm 4 m/s 760 mmHg 89%
    06:00 +26°C° 0 mm 4 m/s 760 mmHg 87%
    07:00 +26°C° 0 mm 4 m/s 761 mmHg 86%
    08:00 +27°C° 0.3 mm 5 m/s 761 mmHg 80%
    09:00 +28°C° 0.3 mm 5 m/s 761 mmHg 75%
    10:00 +30°C° 0.3 mm 5 m/s 761 mmHg 70%
    11:00 +30°C° 0.8 mm 6 m/s 761 mmHg 70%
    12:00 +30°C° 0.8 mm 6 m/s 761 mmHg 70%
    13:00 +30°C° 0.8 mm 7 m/s 760 mmHg 69%
    14:00 +30°C° 0.3 mm 7 m/s 760 mmHg 70%
    15:00 +29°C° 0.3 mm 7 m/s 759 mmHg 70%
    16:00 +29°C° 0.3 mm 7 m/s 759 mmHg 70%
    17:00 +29°C° 0 mm 6 m/s 759 mmHg 73%
    18:00 +28°C° 0 mm 5 m/s 759 mmHg 76%
    19:00 +27°C° 0 mm 5 m/s 760 mmHg 79%
    20:00 +27°C° 0.1 mm 4 m/s 760 mmHg 81%
    21:00 +26°C° 0.1 mm 4 m/s 760 mmHg 82%
    22:00 +26°C° 0.1 mm 4 m/s 760 mmHg 84%
    23:00 +25°C° 0 mm 4 m/s 760 mmHg 85%

    Demain, 3 Juin, Mercredi

    Heure Température Précipitation Vent Pression Humidité
    00:00 +25°C° 0 mm 3 m/s 760 mmHg 85%
    01:00 +25°C° 0 mm 3 m/s 760 mmHg 86%
    02:00 +25°C° 0 mm 3 m/s 759 mmHg 86%
    03:00 +25°C° 0 mm 4 m/s 758 mmHg 86%
    04:00 +25°C° 0 mm 4 m/s 758 mmHg 86%
    05:00 +25°C° 0 mm 4 m/s 758 mmHg 85%
    06:00 +26°C° 0 mm 4 m/s 758 mmHg 85%
    07:00 +26°C° 0 mm 4 m/s 759 mmHg 85%
    08:00 +27°C° 0.7 mm 4 m/s 759 mmHg 80%
    09:00 +28°C° 0.7 mm 4 m/s 759 mmHg 75%
    10:00 +30°C° 0.7 mm 5 m/s 758 mmHg 70%
    11:00 +30°C° 1.3 mm 5 m/s 758 mmHg 68%
    12:00 +30°C° 1.3 mm 5 m/s 758 mmHg 67%
    13:00 +32°C° 1.3 mm 5 m/s 758 mmHg 66%
    14:00 +30°C° 2.1 mm 4 m/s 757 mmHg 70%
    15:00 +29°C° 2.1 mm 4 m/s 757 mmHg 74%
    16:00 +28°C° 2.1 mm 3 m/s 757 mmHg 78%
    17:00 +27°C° 2.2 mm 3 m/s 757 mmHg 82%
    18:00 +26°C° 2.2 mm 3 m/s 757 mmHg 86%
    19:00 +25°C° 2.2 mm 3 m/s 758 mmHg 90%
    20:00 +25°C° 0.8 mm 3 m/s 758 mmHg 91%
    21:00 +25°C° 0.8 mm 2 m/s 758 mmHg 92%
    22:00 +24°C° 0.8 mm 1 m/s 758 mmHg 93%
    23:00 +24°C° 0.2 mm 1 m/s 758 mmHg 92%

    Après-demain, 4 Juin, Jeudi

    Heure Température Précipitation Vent Pression Humidité
    00:00 +24°C° 0.2 mm 1 m/s 757 mmHg 92%
    01:00 +24°C° 0.2 mm 1 m/s 757 mmHg 91%
    02:00 +24°C° 0.1 mm 1 m/s 757 mmHg 91%
    03:00 +24°C° 0.1 mm 1 m/s 756 mmHg 90%
    04:00 +24°C° 0.1 mm 2 m/s 756 mmHg 89%
    05:00 +24°C° 0 mm 2 m/s 756 mmHg 89%
    06:00 +24°C° 0 mm 2 m/s 757 mmHg 89%
    07:00 +24°C° 0 mm 2 m/s 757 mmHg 88%
    08:00 +25°C° 0.2 mm 2 m/s 757 mmHg 87%
    09:00 +25°C° 0.2 mm 2 m/s 757 mmHg 85%
    10:00 +26°C° 0.2 mm 1 m/s 758 mmHg 84%
    11:00 +26°C° 0.3 mm 2 m/s 758 mmHg 84%
    12:00 +26°C° 0.3 mm 3 m/s 758 mmHg 85%
    13:00 +26°C° 0.3 mm 4 m/s 758 mmHg 85%
    14:00 +25°C° 0.5 mm 4 m/s 757 mmHg 86%
    15:00 +25°C° 0.5 mm 3 m/s 757 mmHg 87%
    16:00 +25°C° 0.5 mm 3 m/s 757 mmHg 88%
    17:00 +24°C° 0.5 mm 3 m/s 757 mmHg 90%
    18:00 +24°C° 0.5 mm 2 m/s 758 mmHg 91%
    19:00 +24°C° 0.5 mm 2 m/s 758 mmHg 93%
    20:00 +24°C° 0.2 mm 2 m/s 758 mmHg 94%
    21:00 +24°C° 0.2 mm 3 m/s 758 mmHg 94%
    22:00 +24°C° 0.2 mm 3 m/s 758 mmHg 95%
    23:00 +24°C° 0.1 mm 3 m/s 758 mmHg 94%

    5 Juin, Vendredi

    Heure Température Précipitation Vent Pression Humidité
    00:00 +24°C° 0.1 mm 3 m/s 758 mmHg 94%
    01:00 +23°C° 0.1 mm 4 m/s 757 mmHg 94%
    02:00 +24°C° 0 mm 3 m/s 757 mmHg 93%
    03:00 +24°C° 0 mm 3 m/s 757 mmHg 92%
    04:00 +24°C° 0 mm 3 m/s 757 mmHg 91%
    05:00 +24°C° 0 mm 3 m/s 757 mmHg 90%
    06:00 +24°C° 0 mm 3 m/s 758 mmHg 90%
    07:00 +24°C° 0 mm 3 m/s 758 mmHg 89%
    08:00 +25°C° 0 mm 3 m/s 758 mmHg 86%
    09:00 +26°C° 0 mm 3 m/s 758 mmHg 84%
    10:00 +27°C° 0 mm 2 m/s 759 mmHg 81%
    11:00 +28°C° 0.8 mm 3 m/s 759 mmHg 73%
    12:00 +30°C° 0.8 mm 3 m/s 758 mmHg 65%
    13:00 +33°C° 0.8 mm 3 m/s 758 mmHg 57%
    14:00 +31°C° 0.3 mm 2 m/s 758 mmHg 62%
    15:00 +30°C° 0.3 mm 2 m/s 757 mmHg 67%
    16:00 +29°C° 0.3 mm 1 m/s 757 mmHg 72%
    17:00 +28°C° 0 mm 1 m/s 757 mmHg 73%
    18:00 +28°C° 0 mm 1 m/s 757 mmHg 74%
    19:00 +27°C° 0 mm 1 m/s 757 mmHg 75%
    20:00 +27°C° 0 mm 1 m/s 757 mmHg 76%
    21:00 +27°C° 0 mm 2 m/s 758 mmHg 78%
    22:00 +26°C° 0 mm 2 m/s 758 mmHg 79%
    23:00 +26°C° 0.3 mm 2 m/s 758 mmHg 81%

    6 Juin, Samedi

    Heure Température Précipitation Vent Pression Humidité
    00:00 +26°C° 0.3 mm 1 m/s 757 mmHg 82%
    01:00 +26°C° 0.3 mm 1 m/s 757 mmHg 83%
    02:00 +26°C° 0.4 mm 1 m/s 757 mmHg 85%
    03:00 +25°C° 0.4 mm 1 m/s 757 mmHg 87%
    04:00 +25°C° 0.4 mm 1 m/s 756 mmHg 88%
    05:00 +25°C° 0.1 mm 2 m/s 756 mmHg 89%
    06:00 +26°C° 0.1 mm 2 m/s 757 mmHg 89%
    07:00 +26°C° 0.1 mm 2 m/s 757 mmHg 89%
    08:00 +28°C° 0.6 mm 2 m/s 757 mmHg 82%
    09:00 +29°C° 0.6 mm 2 m/s 757 mmHg 76%
    10:00 +31°C° 0.6 mm 3 m/s 757 mmHg 69%
    11:00 +30°C° 1.1 mm 2 m/s 757 mmHg 71%
    12:00 +29°C° 1.1 mm 2 m/s 757 mmHg 74%
    13:00 +29°C° 1.1 mm 1 m/s 757 mmHg 76%
    14:00 +28°C° 0.2 mm 2 m/s 756 mmHg 76%
    15:00 +28°C° 0.2 mm 3 m/s 756 mmHg 76%
    16:00 +28°C° 0.2 mm 4 m/s 756 mmHg 76%
    17:00 +28°C° 0.5 mm 4 m/s 756 mmHg 78%
    18:00 +27°C° 0.5 mm 4 m/s 755 mmHg 80%
    19:00 +26°C° 0.5 mm 4 m/s 755 mmHg 82%
    20:00 +26°C° 1.3 mm 4 m/s 756 mmHg 85%
    21:00 +26°C° 1.3 mm 4 m/s 756 mmHg 89%
    22:00 +26°C° 1.3 mm 4 m/s 756 mmHg 92%
    23:00 +26°C° 1.2 mm 3 m/s 756 mmHg 93%

    7 Juin, Dimanche

    Heure Température Précipitation Vent Pression Humidité
    00:00 +26°C° 1.2 mm 3 m/s 755 mmHg 94%
    01:00 +26°C° 1.2 mm 3 m/s 755 mmHg 94%
    02:00 +26°C° 1 mm 3 m/s 755 mmHg 94%
    03:00 +26°C° 1 mm 3 m/s 755 mmHg 93%
    04:00 +26°C° 1 mm 3 m/s 755 mmHg 92%
    05:00 +27°C° 0.3 mm 4 m/s 754 mmHg 91%
    06:00 +27°C° 0.3 mm 5 m/s 754 mmHg 90%
    07:00 +27°C° 0.3 mm 5 m/s 754 mmHg 89%
    08:00 +28°C° 0.3 mm 6 m/s 754 mmHg 85%
    09:00 +29°C° 0.3 mm 7 m/s 755 mmHg 82%
    10:00 +29°C° 0.3 mm 7 m/s 755 mmHg 78%
    11:00 +29°C° 1.2 mm 6 m/s 755 mmHg 80%
    12:00 +28°C° 1.2 mm 6 m/s 755 mmHg 81%
    13:00 +27°C° 1.2 mm 5 m/s 755 mmHg 83%
    14:00 +27°C° 1.4 mm 5 m/s 755 mmHg 84%
    15:00 +26°C° 1.4 mm 5 m/s 755 mmHg 84%
    16:00 +25°C° 1.4 mm 5 m/s 755 mmHg 85%
    17:00 +25°C° 1.7 mm 5 m/s 755 mmHg 88%
    18:00 +25°C° 1.7 mm 4 m/s 755 mmHg 90%
    19:00 +25°C° 1.7 mm 4 m/s 755 mmHg 93%
    20:00 +25°C° 1.7 mm 4 m/s 756 mmHg 93%
    21:00 +25°C° 1.7 mm 5 m/s 756 mmHg 93%
    22:00 +23°C° 1.7 mm 5 m/s 756 mmHg 92%
    23:00 +23°C° 2.2 mm 4 m/s 756 mmHg 93%
    Voir plus